Location: Hilton Head Island
(32.2163°N, 80.7526°W)
Time: 21:47:59
(UTC-05:00)

Tiros 1 despin weight - Pass Details

Date: 24 February 2026
Orbit: 556 x 593 km, 48.2° (Epoch: 7 March)

Event Time Altitude Azimuth Distance (km) Brightness Sun altitude
Rises 20:31:33 0° 290° (WNW) 2,729 ? -29.2°
Reaches altitude 10° 20:34:29 10° 269° (W) 1,833 ? -29.8°
Maximum altitude 20:37:06 16° 230° (SW) 1,475 ? -30.4°
Enters shadow 20:37:25 16° 225° (SW) 1,481 ? -30.4°
Drops below altitude 10° 20:39:43 10° 191° (S) 1,835 - -30.9°
Sets 20:42:40 0° 170° (S) 2,732 - -31.5°
